{"data":{"norad_id":61716,"intl_designator":"2024-196K","name":"STARLINK-32465","alt_names":[],"object_type":"PAYLOAD","status":"ACTIVE","operator":null,"country":"US","launch_date":"2024-10-30","launch_site_code":"AFETR","launch_vehicle":null,"mission":null,"orbit_class":"UNKNOWN","rcs_meters":null,"size_class":null,"mass_kg":null,"dimensions":null,"purposes":["comms"],"wikipedia_slug":null,"has_3d_model":false,"image_url":null,"decayed_at":null,"tle_current":{"epoch":"2026-09-21T06:52:42.493152Z","epoch_age_seconds":120895,"freshness":"FRESH","line1":"1 61716U 24196K   26264.28660293  .00000677  00000+0  31180-4 0  9995","line2":"2 61716  53.1592 269.9569 0001275  84.5345 275.5803 15.34393014107144","mean_motion":15.34393014,"eccentricity":0.0001275,"inclination_deg":53.1592,"raan_deg":269.9569,"arg_perigee_deg":84.5345,"mean_anomaly_deg":275.5803,"bstar":3.118e-5,"rev_number":10714,"period_min":93.848185364587,"perigee_km":461.85179437209,"apogee_km":463.59621392815,"semimajor_km":6840.8610041501,"source":"CELESTRAK","updated_at":"2026-09-22T09:00:49.411575Z"}}}